Danbury, CT

7:56 AM EST on January 22, 2018 (GMT -0500)
Danbury Municipal

Weather History for KDXR - March, 2013

Change the Weather History Date:

Thursday, March 28, 2013

  Actual Average Record
Temperature  
Mean Temperature 37 °F -  
Max Temperature 48 °F 53 °F 78 °F (1991)
Min Temperature 28 °F 30 °F 13 °F (1966)
Degree Days  
Heating Degree Days 28    
Moisture  
Dew Point 28 °F    
Average Humidity 62    
Maximum Humidity 79    
Minimum Humidity 50    
Precipitation  
Precipitation 0.00 in - - ()
Sea Level Pressure  
Sea Level Pressure 30.00 in    
Wind  
Wind Speed 4 mph (NW)    
Max Wind Speed 13 mph    
Max Gust Speed 18 mph    
Visibility 10 miles    
Events      
Averages and records for this station are not official NWS values.
T = Trace of Precipitation, MM = Missing Value Source: NWS Daily Summary

Daily Weather History Graph

Daily Weather History Graph

Search for Another Location

Airport or City:

Trip Planner

Search our weather history database for the weather conditions in past years. The results will help you decide how hot, cold, wet, or windy it might be!

Date:

Astronomy

Mar. 28, 2013 Rise Set
Actual Time 6:43 AM EDT 7:15 PM EDT
Civil Twilight 6:15 AM EDT 7:42 PM EDT
Nautical Twilight 5:42 AM EDT 8:15 PM EDT
Astronomical Twilight 5:09 AM EDT 8:49 PM EDT
Moon 9:05 PM EDT (3/28) 7:08 AM EDT (3/28)
Length of Visible Light 13h 27m
Length of Day
12h 31m
Full, 98% of the Moon is Illuminated
Mar 28
Full
Apr 3
Last Quarter
Apr 10
New
Apr 18
First Quarter
Apr 25
Full

Hourly Weather History & Observations

Time (EDT) Temp. Windchill Dew Point Humidity Pressure Visibility Wind Dir Wind Speed Gust Speed Precip Events Conditions
12:53 AM 34.0 °F 31.0 °F 23.0 °F 64% 29.95 in 10.0 mi WSW 3.5 mph - N/A   Clear
1:53 AM 32.0 °F - 24.1 °F 73% 29.94 in 10.0 mi Calm Calm - N/A   Clear
2:53 AM 28.9 °F 25.2 °F 23.0 °F 78% 29.95 in 10.0 mi WSW 3.5 mph - N/A   Clear
3:53 AM 28.9 °F - 23.0 °F 78% 29.95 in 10.0 mi Calm Calm - N/A   Clear
4:53 AM 30.0 °F - 24.1 °F 79% 29.95 in 10.0 mi Calm Calm - N/A   Overcast
5:53 AM 34.0 °F - 25.0 °F 70% 29.95 in 10.0 mi Calm Calm - N/A   Overcast
6:53 AM 34.0 °F - 26.1 °F 73% 29.96 in 10.0 mi Calm Calm - N/A   Overcast
7:53 AM 36.0 °F - 26.1 °F 67% 29.98 in 10.0 mi Calm Calm - N/A   Overcast
8:53 AM 39.0 °F 36.8 °F 27.0 °F 62% 29.99 in 10.0 mi NW 3.5 mph - N/A   Overcast
9:53 AM 41.0 °F 34.7 °F 28.0 °F 60% 29.99 in 10.0 mi NNW 10.4 mph - N/A   Overcast
10:39 AM 42.8 °F 38.0 °F 30.2 °F 61% 30.00 in 10.0 mi NNW 8.1 mph - N/A   Overcast
10:53 AM 41.0 °F 34.7 °F 30.0 °F 65% 30.01 in 10.0 mi North 10.4 mph - N/A   Overcast
11:53 AM 42.1 °F 36.1 °F 30.0 °F 62% 30.01 in 10.0 mi North 10.4 mph - 0.00 in   Overcast
12:53 PM 44.1 °F 39.5 °F 30.9 °F 60% 30.01 in 10.0 mi WNW 8.1 mph - 0.00 in   Overcast
1:53 PM 45.0 °F 39.3 °F 30.9 °F 58% 30.00 in 10.0 mi NW 11.5 mph 16.1 mph N/A   Overcast
2:00 PM 44.6 °F 39.2 °F 30.2 °F 57% 29.99 in 10.0 mi North 10.4 mph 17.3 mph N/A   Overcast
2:53 PM 46.0 °F 42.5 °F 30.0 °F 54% 30.00 in 10.0 mi NNW 6.9 mph - N/A   Overcast
3:53 PM 46.0 °F 41.9 °F 28.9 °F 51% 30.00 in 10.0 mi NNW 8.1 mph 18.4 mph N/A   Mostly Cloudy
4:53 PM 46.9 °F - 28.9 °F 50% 30.00 in 10.0 mi NW 12.7 mph 17.3 mph N/A   Mostly Cloudy
5:53 PM 46.0 °F 41.4 °F 28.0 °F 50% 30.01 in 10.0 mi NW 9.2 mph 18.4 mph N/A   Overcast
6:53 PM 45.0 °F 40.6 °F 28.9 °F 53% 30.03 in 10.0 mi NW 8.1 mph - N/A   Overcast
7:53 PM 43.0 °F 41.3 °F 28.9 °F 58% 30.06 in 10.0 mi Variable 3.5 mph - N/A   Scattered Clouds
8:53 PM 44.1 °F 42.5 °F 28.9 °F 55% 30.07 in 10.0 mi WNW 3.5 mph - N/A   Overcast
9:53 PM 43.0 °F - 28.9 °F 58% 30.09 in 10.0 mi Calm Calm - N/A   Overcast
10:53 PM 42.1 °F - 28.9 °F 60% 30.09 in 10.0 mi Calm Calm - N/A   Overcast
11:53 PM 42.1 °F - 28.9 °F 60% 30.10 in 10.0 mi Calm Calm - N/A   Overcast